Location: Tucson
(32.2217°N, 110.9265°W)
Time: 17:47:06
(UTC-07:00)

N. Korean satellite - Pass Details

Date: 03 October 2021
Orbit: 450 x 495 km, 97.3° (Epoch: 22 October)

Event Time Altitude Azimuth Distance (km) Brightness Sun altitude
Rises 05:22:06 0° 15° (NNE) 2,557 10.5 -12.9°
Reaches altitude 10° 05:24:11 10° 20° (NNE) 1,678 9.6 -12.5°
Maximum altitude 05:27:45 59° 100° (E) 573 7.2 -11.7°
Drops below altitude 10° 05:31:20 10° 180° (S) 1,681 9.3 -11.0°
Sets 05:33:25 0° 185° (S) 2,561 10.2 -10.5°
